Weather History for Fort Smith, AR

Change the Weather History Date:

Saturday, December 3, 2011

  Actual Average Record
Temperature  
Mean Temperature 57 °F 44 °F  
Max Temperature 66 °F 55 °F 80 °F (2012)
Min Temperature 48 °F 34 °F 15 °F (1895)
Degree Days  
Heating Degree Days 8 21  
Month to date heating degree days 37 61  
Since 1 July heating degree days 475 626  
Growing Degree Days 7 (Base 50)    
Moisture  
Dew Point 51 °F    
Average Humidity 77    
Maximum Humidity 93    
Minimum Humidity 60    
Precipitation  
Precipitation 0.93 in 0.12 in 1.64 in (1973)
Month to date precipitation 0.93 0.38  
Year to date precipitation 44.05 42.55  
Sea Level Pressure  
Sea Level Pressure 30.06 in    
Wind  
Wind Speed 10 mph (South)    
Max Wind Speed 20 mph    
Max Gust Speed 28 mph    
Visibility 8 miles    
Events Rain    
T = Trace of Precipitation, MM = Missing Value Source: NWS Daily Summary

Daily Weather History Graph

Daily Weather History Graph

Search for Another Location

Airport:

Trip Planner

Search our weather history database for the weather conditions in past years. The results will help you decide how hot, cold, wet, or windy it might be!

Date:

Astronomy

Dec. 03, 2011 Rise Set
Actual Time 7:09 AM CST 5:04 PM CST
Civil Twilight 6:41 AM CST 5:32 PM CST
Nautical Twilight 6:10 AM CST 6:04 PM CST
Astronomical Twilight 5:39 AM CST 6:34 PM CST
Moon 12:59 PM CST (12/3) 12:50 AM CST (12/3)
Length of Visible Light 10h 51m
Length of Day
9h 55m
Waxing Gibbous, 63% of the Moon is Illuminated
Dec 3
Waxing Gibbous
Dec 10
Full
Dec 17
Last Quarter
Dec 24
New
Jan 1
First Quarter

Hourly Weather History & Observations

Time (CST) Temp. Dew Point Humidity Pressure Visibility Wind Dir Wind Speed Gust Speed Precip Events Conditions
12:53 AM 51.1 °F 43.0 °F 74% 30.22 in 10.0 mi ENE 11.5 mph - 0.00 in Rain Light Rain
1:53 AM 51.1 °F 42.1 °F 71% 30.20 in 10.0 mi ENE 8.1 mph - 0.00 in   Mostly Cloudy
2:53 AM 50.0 °F 41.0 °F 71% 30.19 in 10.0 mi ENE 9.2 mph - N/A   Scattered Clouds
3:53 AM 50.0 °F 39.9 °F 68% 30.19 in 10.0 mi ENE 6.9 mph - N/A   Clear
4:53 AM 48.9 °F 39.9 °F 71% 30.18 in 10.0 mi East 5.8 mph - N/A   Clear
5:53 AM 50.0 °F 37.9 °F 63% 30.16 in 10.0 mi East 8.1 mph - N/A   Clear
6:53 AM 48.9 °F 37.9 °F 66% 30.18 in 10.0 mi East 5.8 mph - N/A   Clear
7:53 AM 50.0 °F 39.0 °F 66% 30.18 in 10.0 mi ENE 5.8 mph - N/A   Scattered Clouds
8:53 AM 53.1 °F 41.0 °F 64% 30.15 in 10.0 mi ENE 6.9 mph - N/A   Partly Cloudy
9:53 AM 57.9 °F 44.1 °F 60% 30.12 in 10.0 mi East 10.4 mph - N/A   Clear
10:53 AM 62.1 °F 48.9 °F 62% 30.07 in 10.0 mi ESE 13.8 mph 25.3 mph N/A   Partly Cloudy
11:53 AM 62.1 °F 52.0 °F 70% 30.01 in 10.0 mi ESE 13.8 mph 21.9 mph 0.00 in Rain Light Rain
12:53 PM 63.0 °F 53.1 °F 70% 29.99 in 10.0 mi ESE 11.5 mph 19.6 mph 0.00 in Rain Light Rain
1:53 PM 61.0 °F 55.0 °F 81% 29.97 in 5.0 mi East 6.9 mph - 0.02 in Rain Light Rain
2:53 PM 60.1 °F 55.9 °F 86% 29.97 in 10.0 mi SSE 5.8 mph - 0.03 in Rain Light Rain
3:53 PM 64.0 °F 55.0 °F 73% 29.96 in 9.0 mi South 6.9 mph - 0.02 in Rain Light Rain
4:53 PM 64.9 °F 55.0 °F 70% 29.95 in 10.0 mi South 12.7 mph - 0.01 in Rain Light Rain
5:53 PM 66.0 °F 55.9 °F 70% 29.95 in 10.0 mi South 10.4 mph 21.9 mph 0.00 in   Overcast
6:53 PM 64.9 °F 57.0 °F 75% 29.95 in 4.0 mi South 11.5 mph - 0.01 in Rain Rain
7:11 PM 62.6 °F 57.2 °F 82% 29.98 in 6.0 mi West 11.5 mph - 0.04 in Rain Heavy Rain
7:53 PM 61.0 °F 57.9 °F 90% 29.99 in 3.0 mi West 11.5 mph - 0.16 in Rain Rain
8:07 PM 60.8 °F 57.2 °F 88% 29.99 in 2.5 mi West 6.9 mph - 0.09 in Rain Heavy Rain
8:19 PM 60.8 °F 57.2 °F 88% 30.00 in 1.8 mi West 10.4 mph - 0.16 in Rain Heavy Rain
8:33 PM 60.8 °F 57.2 °F 88% 29.99 in 1.8 mi West 9.2 mph - 0.31 in Rain Heavy Rain
8:53 PM 60.1 °F 57.9 °F 93% 29.99 in 1.8 mi West 17.3 mph 20.7 mph 0.39 in Rain Rain
9:00 PM 60.8 °F 55.4 °F 82% 30.01 in 5.0 mi WSW 16.1 mph - 0.02 in Rain Rain
9:53 PM 59.0 °F 57.0 °F 93% 30.03 in 7.0 mi West 12.7 mph - 0.16 in Rain Rain
10:53 PM 57.0 °F 55.9 °F 96% 30.03 in 10.0 mi WSW 10.4 mph - 0.05 in Rain Light Rain
11:27 PM 57.2 °F 55.4 °F 94% 30.06 in 10.0 mi WSW 10.4 mph - 0.06 in Rain Light Rain
11:34 PM 57.2 °F 55.4 °F 94% 30.05 in 9.0 mi West 11.5 mph - 0.06 in Rain Light Rain
11:51 PM 55.4 °F 53.6 °F 94% 30.05 in 7.0 mi West 12.7 mph - 0.08 in Rain Rain
11:53 PM 55.9 °F 54.0 °F 93% 30.04 in 7.0 mi West 13.8 mph - 0.08 in Rain Light Rain